Lapse_Rate
5.6 5.4 5.3 5.3 5.3 5.3 5.3 5.3 5.4 5.1 4.9 4.9 5.1 5.5 5.6 5.6 5.6 5.8 5.8 5.7 5.8 6.0
5.2 5.2 5.3 5.2 5.2 5.2 5.2 5.2 5.1 4.7 4.7 4.6 4.6 4.8 5.1 5.4 5.4 5.8 5.8 5.7 5.6 5.7
5.2 5.1 5.0 4.9 4.7 4.8 4.8 4.6 4.3 4.2 4.4 4.7 4.7 4.9 5.1 5.1 5.3 5.7 5.7 5.6 5.5 5.5
4.8 4.6 4.5 4.5 4.6 4.5 4.3 4.1 4.0 4.1 4.3 4.4 4.5 4.6 4.7 4.9 5.2 5.4 5.8 5.6 5.6 5.7
4.5 4.4 4.3 4.4 4.2 4.0 3.9 3.7 3.7 3.8 3.9 4.1 4.3 4.5 4.6 4.8 5.0 5.1 5.3 5.5 5.6 5.8
4.3 4.4 4.3 4.2 3.9 3.8 3.6 3.5 3.5 3.6 3.8 4.0 4.2 4.5 4.6 4.8 4.9 5.0 5.1 5.1 5.2 5.4
4.3 4.3 4.2 4.1 3.9 3.8 3.6 3.6 3.7 3.8 4.0 4.1 4.4 4.6 4.8 4.9 4.9 4.9 5.0 5.0 5.0 5.1
4.3 4.1 3.8 3.5 3.4 3.3 3.3 3.4 3.6 3.8 3.9 4.1 4.2 4.4 4.7 4.8 4.9 5.0 4.9 4.9 4.9 4.8
3.7 3.4 3.3 3.3 3.4 3.5 3.5 3.6 3.8 3.9 4.0 4.1 4.3 4.5 4.5 4.4 4.6 4.7 4.9 4.9 4.8 4.7
3.7 3.7 3.7 3.8 3.8 3.9 4.0 4.1 4.3 4.5 4.6 4.6 4.6 4.6 4.6 4.6 4.6 4.6 4.7 4.7 4.7 4.8
3.5 3.6 3.7 3.8 4.0 4.2 4.3 4.4 4.5 4.9 5.1 4.9 5.0 4.9 4.9 4.7 4.6 4.7 4.7 4.7 4.8 4.8
3.3 3.6 3.9 4.2 4.4 4.6 4.6 4.9 5.0 5.0 5.1 5.1 5.2 5.1 5.0 4.9 4.8 4.8 4.8 4.8 4.7 4.7
3.8 3.8 4.0 4.3 4.5 4.7 5.0 5.2 5.4 5.4 5.4 5.4 5.5 5.4 5.2 5.0 4.9 4.8 4.8 4.7 4.8 4.9
4.3 4.2 4.6 4.9 4.7 5.0 5.4 5.4 5.5 5.6 5.7 5.6 5.5 5.5 5.3 5.1 5.0 5.0 4.9 4.9 4.9 4.8
Wind_Speed
2 1 2 2 2 3 3 4 5 6 7 8 8 7 6 3 4 5 5 7 5 4
1 2 2 4 3 2 4 3 5 7 6 7 7 6 5 4 5 4 5 6 6 4
2 2 2 3 4 4 5 4 6 6 6 6 6 5 5 5 5 5 4 4 6 5
5 5 5 4 5 5 5 6 6 6 6 6 6 6 6 6 6 6 6 5 6 7
3 4 4 5 6 5 6 5 6 6 6 6 6 6 6 7 6 6 7 7 6 6
4 4 4 5 5 5 6 6 6 6 6 6 6 6 6 6 6 6 6 6 6 7
4 5 5 5 5 5 5 6 6 6 6 6 6 6 6 6 6 6 5 6 6 7
5 5 5 6 6 6 6 6 6 6 6 6 6 5 6 6 6 6 6 6 6 7
6 5 6 6 6 6 6 6 6 6 6 7 5 9 13 9 6 6 5 6 6 6
6 6 6 6 6 6 6 5 6 7 6 7 7 12 13 12 5 5 5 6 6 7
6 6 6 6 6 6 4 6 6 6 7 6 7 13 14 12 5 4 6 6 6 6
6 6 6 6 7 6 5 6 5 5 7 7 8 13 13 9 4 5 6 5 6 5
6 6 6 7 7 4 4 6 5 8 6 10 8 13 14 9 3 4 4 5 6 9
6 6 7 6 4 5 6 6 6 7 7 7 7 8 15 13 4 4 4 4 4 4
Wind_Direction
245 249 269 292 303 293 290 295 305 315 320 314 305 298 291 282 265 244 242 244 233 234
15 357 313 310 300 296 300 301 327 325 316 311 309 306 299 279 276 266 256 249 245 234
343 323 311 309 306 315 315 329 324 318 314 314 313 310 310 299 286 274 264 255 251 248
348 343 341 335 331 335 329 327 316 311 311 315 313 312 311 298 290 285 280 274 257 258
328 339 341 337 326 326 316 309 301 306 309 306 305 311 312 307 301 294 293 287 286 271
325 318 313 311 311 313 308 304 306 306 305 302 300 302 295 284 287 288 287 291 292 287
302 305 293 293 295 296 296 297 301 298 296 298 303 301 297 300 299 290 281 285 280 279
298 297 298 299 305 307 308 301 300 302 304 303 303 290 296 293 286 284 293 290 283 278
300 305 298 298 305 306 301 297 295 299 298 302 295 289 298 299 289 283 287 293 292 282
302 297 288 291 296 293 292 292 291 294 294 292 290 295 297 293 276 270 284 288 293 298
296 288 293 299 295 292 280 285 287 290 288 286 290 292 296 296 288 274 281 280 284 286
293 291 299 299 294 286 278 288 282 275 289 290 289 294 296 297 277 277 281 283 290 291
309 305 302 295 296 284 279 282 291 295 282 282 284 293 294 282 238 273 281 287 291 307
297 292 281 282 275 285 296 297 292 288 289 283 276 283 295 285 245 245 267 263 286 278